{"data":{"norad_id":54124,"intl_designator":"2022-138M","name":"ONEWEB-0506","alt_names":[],"object_type":"PAYLOAD","status":"ACTIVE","operator":null,"country":"UK","launch_date":"2022-10-22","launch_site_code":"SRILR","launch_vehicle":null,"mission":null,"orbit_class":"UNKNOWN","rcs_meters":null,"size_class":null,"mass_kg":null,"dimensions":null,"purposes":["comms"],"wikipedia_slug":null,"has_3d_model":false,"image_url":null,"decayed_at":null,"tle_current":{"epoch":"2026-05-24T23:25:02.008416Z","epoch_age_seconds":84021,"freshness":"FRESH","line1":"1 54124U 22138M   26144.97571769 -.00000036  00000+0 -12180-3 0  9995","line2":"2 54124  87.9160 309.5892 0001707  85.3244 274.8083 13.19725509173742","mean_motion":13.19725509,"eccentricity":0.0001707,"inclination_deg":87.916,"raan_deg":309.5892,"arg_perigee_deg":85.3244,"mean_anomaly_deg":274.8083,"bstar":-0.0001218,"rev_number":17374,"period_min":109.11359901584,"perigee_km":1184.477448447,"apogee_km":1187.0597658213,"semimajor_km":7563.9056071342,"source":"CELESTRAK","updated_at":"2026-05-25T13:38:22.586621Z"}}}